KB7STN Weather Reports


time (UTC)temp
C
wind
direction
speed
KPH
gust
KPH
rain 1hr
cm
rain 24hr
cm
rain mn
cm
humidity
%
barometer
mb
20260502190724 20 167 4.8 16.1 0.00 0.00 0.00 19 1011.8
20260502190224 20 169 4.8 14.5 0.00 0.00 0.00 19 1011.8
20260502185724 20 191 4.8 11.3 0.00 0.00 0.00 20 1012.0
20260502185224 20 234 3.2 9.7 0.00 0.00 0.00 21 1012.1
20260502184724 20 235 3.2 9.7 0.00 0.00 0.00 20 1012.2
20260502184224 20 235 4.8 9.7 0.00 0.00 0.00 19 1012.3
20260502183724 20 236 4.8 8.0 0.00 0.00 0.00 19 1012.4
20260502183224 19 236 4.8 11.3 0.00 0.00 0.00 19 1012.4
20260502182724 19 238 4.8 14.5 0.00 0.00 0.00 20 1012.4
20260502182224 19 244 4.8 14.5 0.00 0.00 0.00 19 1012.6
20260502181724 19 245 4.8 9.7 0.00 0.00 0.00 20 1012.6
20260502181224 19 245 4.8 9.7 0.00 0.00 0.00 19 1012.8
20260502180724 19 248 4.8 9.7 0.00 0.00 0.00 19 1012.8
20260502180224 19 250 3.2 9.7 0.00 0.00 0.00 20 1012.9
20260502170224 18 277 3.2 6.4 0.00 0.00 0.00 23 1013.0
20260502164224 17 227 3.2 8.0 0.00 0.00 0.00 26 1013.1
20260502163724 17 199 3.2 8.0 0.00 0.00 0.00 25 1013.1
20260502163224 17 202 3.2 9.7 0.00 0.00 0.00 26 1013.1
20260502162724 17 214 3.2 8.0 0.00 0.00 0.00 25 1013.1
20260502162224 17 197 3.2 11.3 0.00 0.00 0.00 24 1013.2
20260502161724 17 193 3.2 8.0 0.00 0.00 0.00 26 1013.1
20260502161224 16 217 3.2 8.0 0.00 0.00 0.00 26 1013.1
20260502160724 16 220 4.8 9.7 0.00 0.00 0.00 26 1013.1
20260502160224 16 210 4.8 8.0 0.00 0.00 0.00 26 1013.2
20260502152224 16 200 3.2 8.0 0.00 0.00 0.00 27 1013.3
20260502151724 16 183 1.6 6.4 0.00 0.00 0.00 27 1013.3
20260502151224 16 178 1.6 6.4 0.00 0.00 0.00 28 1013.3
20260502150724 16 165 1.6 8.0 0.00 0.00 0.00 28 1013.3
20260502150224 15 46 0.0 6.4 0.00 0.00 0.00 29 1013.4
20260502130724 7 44 0.0 0.0 0.00 0.00 0.00 50 1013.4
20260502130224 7 44 0.0 0.0 0.00 0.00 0.00 49 1013.4
20260502123724 7 44 0.0 3.2 0.00 0.00 0.00 49 1013.4
20260502123224 7 44 1.6 3.2 0.00 0.00 0.00 48 1013.3
20260502122724 6 44 0.0 4.8 0.00 0.00 0.00 48 1013.2
20260502122224 7 44 0.0 0.0 0.00 0.00 0.00 49 1013.3
20260502121724 7 44 0.0 0.0 0.00 0.00 0.00 48 1013.2
20260502121224 7 44 0.0 0.0 0.00 0.00 0.00 48 1013.2
20260502120724 7 44 0.0 0.0 0.00 0.00 0.00 48 1013.2
20260502120224 7 44 0.0 0.0 0.00 0.00 0.00 48 1013.2
20260502115724 7 44 0.0 0.0 0.00 0.00 0.00 48 1013.1
20260502115224 7 44 0.0 0.0 0.00 0.00 0.00 48 1013.2
20260502114724 7 44 0.0 0.0 0.00 0.00 0.00 48 1013.2
20260502114224 7 44 0.0 0.0 0.00 0.00 0.00 48 1013.2
20260502113724 7 44 0.0 0.0 0.00 0.00 0.00 48 1013.2
20260502113224 7 44 0.0 0.0 0.00 0.00 0.00 48 1013.1
20260502112724 7 44 0.0 0.0 0.00 0.00 0.00 48 1013.2
20260502112225 7 44 0.0 0.0 0.00 0.00 0.00 48 1013.3
20260502111724 7 44 0.0 0.0 0.00 0.00 0.00 48 1013.3
20260502111224 7 44 0.0 0.0 0.00 0.00 0.00 47 1013.3
20260502110724 7 44 0.0 0.0 0.00 0.00 0.00 49 1013.3
20260502110224 7 44 0.0 0.0 0.00 0.00 0.00 48 1013.3
20260502105724 7 44 0.0 0.0 0.00 0.00 0.00 47 1013.3
20260502105224 7 44 0.0 0.0 0.00 0.00 0.00 47 1013.3
20260502104725 7 44 0.0 0.0 0.00 0.00 0.00 47 1013.3
20260502104225 7 44 0.0 0.0 0.00 0.00 0.00 47 1013.3
20260502103725 7 44 0.0 0.0 0.00 0.00 0.00 47 1013.3
20260502103225 7 44 0.0 0.0 0.00 0.00 0.00 46 1013.3
20260502102725 7 44 0.0 0.0 0.00 0.00 0.00 46 1013.2
20260502102225 7 44 0.0 0.0 0.00 0.00 0.00 46 1013.2
20260502101725 8 44 0.0 0.0 0.00 0.00 0.00 46 1013.2
20260502101225 8 44 0.0 0.0 0.00 0.00 0.00 45 1013.1
20260502100725 8 44 0.0 0.0 0.00 0.00 0.00 45 1013.0
20260502100225 8 44 0.0 0.0 0.00 0.00 0.00 45 1013.0
20260502091225 9 44 0.0 0.0 0.00 0.00 0.00 43 1012.9
20260502090725 8 44 0.0 0.0 0.00 0.00 0.00 42 1012.9
20260502090225 8 44 0.0 0.0 0.00 0.00 0.00 43 1013.0
20260502071225 8 44 0.0 0.0 0.00 0.00 0.00 42 1013.4
20260502070725 9 44 0.0 0.0 0.00 0.00 0.00 42 1013.4
20260502070225 9 44 0.0 0.0 0.00 0.00 0.00 42 1013.4
20260502065725 9 44 0.0 0.0 0.00 0.00 0.00 41 1013.4
20260502065225 9 44 0.0 0.0 0.00 0.00 0.00 39 1013.4
20260502064725 9 44 0.0 0.0 0.00 0.00 0.00 41 1013.4
20260502064225 9 44 0.0 0.0 0.00 0.00 0.00 40 1013.3
20260502063725 8 44 0.0 0.0 0.00 0.00 0.00 43 1013.2
20260502063225 9 44 0.0 0.0 0.00 0.00 0.00 42 1013.3
20260502062725 9 44 0.0 0.0 0.00 0.00 0.00 41 1013.3
20260502062225 9 44 0.0 0.0 0.00 0.00 0.00 39 1013.2
20260502061725 9 44 0.0 0.0 0.00 0.00 0.00 39 1013.2
20260502061225 10 44 0.0 0.0 0.00 0.00 0.00 39 1013.2
20260502060725 10 44 0.0 0.0 0.00 0.00 0.00 40 1013.1
20260502060225 10 44 0.0 0.0 0.00 0.00 0.00 40 1013.1
20260502055725 10 44 0.0 0.0 0.00 0.00 0.00 39 1013.1
20260502055225 10 44 0.0 0.0 0.00 0.00 0.00 39 1013.1
20260502054725 10 44 0.0 0.0 0.00 0.00 0.00 41 1013.0
20260502054225 10 44 0.0 0.0 0.00 0.00 0.00 39 1013.0
20260502053725 10 44 0.0 0.0 0.00 0.00 0.00 38 1013.1
20260502053225 10 44 0.0 0.0 0.00 0.00 0.00 38 1013.0
20260502052725 10 44 0.0 0.0 0.00 0.00 0.00 38 1013.0
20260502052225 10 44 0.0 0.0 0.00 0.00 0.00 37 1013.0
20260502051725 11 44 0.0 0.0 0.00 0.00 0.00 37 1013.0
20260502051225 11 44 0.0 0.0 0.00 0.00 0.00 37 1013.0
20260502050725 11 44 0.0 0.0 0.00 0.00 0.00 36 1013.1
20260502050225 11 44 0.0 0.0 0.00 0.00 0.00 36 1013.0
20260502045725 11 44 0.0 0.0 0.00 0.00 0.00 36 1013.1
20260502045225 11 44 0.0 0.0 0.00 0.00 0.00 36 1013.0
20260502044725 11 44 0.0 0.0 0.00 0.00 0.00 37 1013.1
20260502044225 11 44 0.0 0.0 0.00 0.00 0.00 37 1013.1
20260502043725 11 44 0.0 0.0 0.00 0.00 0.00 37 1013.0
20260502043225 11 44 0.0 0.0 0.00 0.00 0.00 37 1013.1
20260502042725 11 44 0.0 0.0 0.00 0.00 0.00 37 1013.0
20260502042225 11 44 0.0 0.0 0.00 0.00 0.00 37 1013.0
20260502041725 11 44 0.0 0.0 0.00 0.00 0.00 37 1013.0
20260502041225 11 44 0.0 0.0 0.00 0.00 0.00 37 1013.0
20260502040725 11 44 0.0 0.0 0.00 0.00 0.00 36 1012.8
20260502040225 11 44 0.0 0.0 0.00 0.00 0.00 36 1012.8
20260502035725 11 44 0.0 0.0 0.00 0.00 0.00 35 1012.7
20260502035225 11 44 0.0 0.0 0.00 0.00 0.00 35 1012.7
20260502034725 12 44 0.0 0.0 0.00 0.00 0.00 35 1012.6
20260502034225 12 44 0.0 1.6 0.00 0.00 0.00 35 1012.6
20260502033725 12 44 0.0 4.8 0.00 0.00 0.00 35 1012.5
20260502033225 12 44 0.0 0.0 0.00 0.00 0.00 34 1012.5
20260502032725 12 44 0.0 0.0 0.00 0.00 0.00 35 1012.4
20260502032225 12 44 0.0 0.0 0.00 0.00 0.00 35 1012.3
20260502031725 12 44 0.0 0.0 0.00 0.00 0.00 34 1012.3
20260502031225 12 44 0.0 3.2 0.00 0.00 0.00 34 1012.2
20260502030725 12 44 0.0 1.6 0.00 0.00 0.00 35 1012.1
20260502030225 12 44 0.0 0.0 0.00 0.00 0.00 35 1012.0
20260502025725 12 44 0.0 0.0 0.00 0.00 0.00 35 1011.9
20260502025225 12 44 0.0 0.0 0.00 0.00 0.00 34 1011.9
20260502024725 12 44 0.0 0.0 0.00 0.00 0.00 34 1011.8
20260502024225 13 44 0.0 0.0 0.00 0.00 0.00 34 1011.8
20260502023725 13 44 0.0 0.0 0.00 0.00 0.00 34 1011.7
20260502023225 13 44 0.0 3.2 0.00 0.00 0.00 33 1011.8
20260502022725 13 44 0.0 6.4 0.00 0.00 0.00 32 1011.8
20260502022225 13 44 0.0 0.0 0.00 0.00 0.00 31 1011.8
20260502021725 13 44 0.0 0.0 0.00 0.00 0.00 31 1011.7
20260502021225 13 44 0.0 1.6 0.00 0.00 0.00 31 1011.7
20260502020725 14 44 1.6 4.8 0.00 0.00 0.00 30 1011.7
20260502020225 14 44 1.6 9.7 0.00 0.00 0.00 30 1011.6
20260502015725 14 45 1.6 6.4 0.00 0.00 0.00 30 1011.7
20260502015225 15 45 1.6 6.4 0.00 0.00 0.00 29 1011.6
20260502014725 15 45 1.6 6.4 0.00 0.00 0.00 30 1011.6
20260502014225 15 45 1.6 9.7 0.00 0.00 0.00 29 1011.5
20260502013725 15 46 1.6 4.8 0.00 0.00 0.00 29 1011.5
20260502013225 15 46 3.2 6.4 0.00 0.00 0.00 28 1011.5
20260502012725 16 47 3.2 8.0 0.00 0.00 0.00 28 1011.5
20260502012226 16 48 1.6 6.4 0.00 0.00 0.00 28 1011.5
20260502011725 16 48 1.6 6.4 0.00 0.00 0.00 28 1011.5
20260502011225 16 48 3.2 8.0 0.00 0.00 0.00 27 1011.4
20260502010725 16 43 3.2 6.4 0.00 0.00 0.00 27 1011.5
20260502010225 16 43 3.2 6.4 0.00 0.00 0.00 26 1011.6
20260502005725 16 42 3.2 8.0 0.00 0.00 0.00 27 1011.6
20260502005225 16 37 4.8 9.7 0.00 0.00 0.00 26 1011.6
20260502004725 16 53 3.2 9.7 0.00 0.00 0.00 26 1011.5
20260502004225 16 38 3.2 8.0 0.00 0.00 0.00 26 1011.5
20260502003725 16 34 3.2 9.7 0.00 0.00 0.00 25 1011.6
20260502003226 16 29 3.2 6.4 0.00 0.00 0.00 25 1011.6
20260502002726 16 44 4.8 8.0 0.00 0.00 0.00 25 1011.6
20260502002225 17 24 4.8 9.7 0.00 0.00 0.00 26 1011.6
20260502001725 17 39 3.2 11.3 0.00 0.00 0.00 25 1011.6
20260502001226 17 61 3.2 8.0 0.00 0.00 0.00 26 1011.6
20260502000725 17 44 1.6 8.0 0.00 0.00 0.00 26 1011.6
20260502000226 17 44 3.2 9.7 0.00 0.00 0.00 25 1011.7
20260501235726 17 76 3.2 12.9 0.00 0.00 0.00 25 1011.7
20260501235226 17 69 3.2 8.0 0.00 0.00 0.00 25 1011.6
20260501234726 17 46 3.2 8.0 0.00 0.00 0.00 25 1011.6
20260501234226 17 46 3.2 11.3 0.00 0.00 0.00 24 1011.7
20260501233726 17 84 3.2 9.7 0.00 0.00 0.00 24 1011.6
20260501233226 17 71 3.2 11.3 0.00 0.00 0.00 23 1011.6
20260501232726 17 69 3.2 6.4 0.00 0.00 0.00 23 1011.7
20260501232226 18 53 3.2 12.9 0.00 0.00 0.00 23 1011.7
20260501231726 18 112 3.2 9.7 0.00 0.00 0.00 24 1011.5
20260501231226 18 104 1.6 9.7 0.00 0.00 0.00 23 1011.6
20260501230726 18 77 1.6 9.7 0.00 0.00 0.00 23 1011.5
20260501230226 18 61 1.6 8.0 0.00 0.00 0.00 23 1011.5
20260501225726 18 115 1.6 6.4 0.00 0.00 0.00 23 1011.5
20260501225226 18 155 3.2 4.8 0.00 0.00 0.00 23 1011.6
20260501224726 18 172 3.2 8.0 0.00 0.00 0.00 22 1011.7
20260501224226 18 42 3.2 6.4 0.00 0.00 0.00 24 1011.7
20260501223726 18 42 3.2 9.7 0.00 0.00 0.00 23 1011.7
20260501223226 18 5 3.2 12.9 0.00 0.00 0.00 25 1011.7
20260501222726 18 67 1.6 11.3 0.00 0.00 0.00 23 1011.8
20260501222226 18 60 1.6 11.3 0.00 0.00 0.00 23 1011.8
20260501221726 18 61 1.6 16.1 0.00 0.00 0.00 24 1011.9
20260501221226 18 271 1.6 8.0 0.00 0.00 0.00 23 1011.9
20260501220726 18 271 1.6 4.8 0.00 0.00 0.00 23 1012.0
20260501220226 18 271 1.6 6.4 0.00 0.00 0.00 25 1012.0
20260501215726 18 271 1.6 8.0 0.00 0.00 0.00 26 1012.0
20260501215226 18 271 1.6 8.0 0.00 0.00 0.00 25 1012.1
20260501214726 18 271 1.6 11.3 0.00 0.00 0.00 25 1012.2
20260501214226 18 271 1.6 4.8 0.00 0.00 0.00 27 1012.2
20260501213726 18 271 1.6 8.0 0.00 0.00 0.00 27 1012.2
20260501213226 18 271 1.6 6.4 0.00 0.00 0.00 26 1012.2
20260501212726 18 271 3.2 11.3 0.00 0.00 0.00 25 1012.4
20260501212226 17 270 1.6 11.3 0.00 0.00 0.00 27 1012.4
20260501211726 17 266 1.6 6.4 0.00 0.00 0.00 25 1012.4
20260501211226 17 266 0.0 3.2 0.00 0.00 0.00 25 1012.4
20260501210726 17 266 1.6 6.4 0.00 0.00 0.00 25 1012.5
20260501210226 17 266 1.6 9.7 0.00 0.00 0.00 25 1012.6
20260501205726 17 266 0.0 1.6 0.00 0.00 0.00 25 1012.6
20260501205226 17 266 1.6 4.8 0.00 0.00 0.00 26 1012.5
20260501204726 17 266 1.6 4.8 0.00 0.00 0.00 26 1012.7
20260501204226 17 266 3.2 8.0 0.00 0.00 0.00 24 1012.7
20260501203726 17 265 3.2 9.7 0.00 0.00 0.00 25 1012.6
20260501203226 17 264 3.2 8.0 0.00 0.00 0.00 25 1012.7
20260501202726 17 264 3.2 8.0 0.00 0.00 0.00 25 1012.7
20260501202226 17 261 1.6 8.0 0.00 0.00 0.00 26 1012.7
20260501201726 17 261 1.6 8.0 0.00 0.00 0.00 27 1012.7
20260501201226 17 258 1.6 8.0 0.00 0.00 0.00 26 1012.7
20260501200726 16 336 3.2 8.0 0.00 0.00 0.00 27 1012.7
20260501200226 16 336 3.2 11.3 0.00 0.00 0.00 29 1012.8
20260501195726 16 338 3.2 9.7 0.00 0.00 0.00 26 1012.8
20260501195226 16 343 3.2 9.7 0.00 0.00 0.00 24 1013.0
20260501194726 16 61 3.2 12.9 0.00 0.00 0.00 24 1013.1
20260501194226 16 82 1.6 4.8 0.00 0.00 0.00 26 1013.0
20260501193726 16 82 1.6 9.7 0.00 0.00 0.00 25 1013.1
20260501193226 16 82 1.6 4.8 0.00 0.00 0.00 25 1013.1
20260501192726 16 77 1.6 6.4 0.00 0.00 0.00 26 1013.3
20260501192226 16 56 3.2 11.3 0.00 0.00 0.00 26 1013.3
20260501191726 16 65 3.2 11.3 0.00 0.00 0.00 25 1013.3
20260501191226 16 48 1.6 6.4 0.00 0.00 0.00 27 1013.3